Regional Weather Roundup
Issued by NWS

Home | Current Version | Previous Version | Text Only | Print | Product List | Glossary On
Versions: 1 2 3 4 5 6 7 8 9 10 11 12 13 14 15 16 17 18 19 20 21 22 23 24 25 26 27 28 29 30 31 32 33 34 35 36 37 38 39 40 41 42 43 44 45 46 47 48 49 50
000
ASUS43 KLMK 190010
RWRKY
KENTUCKY REGIONAL WEATHER ROUNDUP
NATIONAL WEATHER SERVICE LOUISVILLE KY
800 PM EDT FRI APR 18 2014

NOTE "FAIR" INDICATES FEW OR NO CLOUDS BELOW 12,000 FEET
WITH NO SIGNIFICANT WEATHER AND/OR OBSTRUCTIONS TO VISIBILITY.

KYZ001>023-026-027-061>063-070>075-190100-
WESTERN AND SOUTH CENTRAL KENTUCKY

CITY           SKY/WX    TMP DP  RH WIND       PRES   REMARKS
PADUCAH        CLEAR     70  42  36 NE10      30.16F
HENDERSON      CLEAR     57  43  58 N3        30.18F
OWENSBORO      MOCLDY    70  38  31 NE3       30.19S
HOPKINSVILLE   CLOUDY    66  46  48 E5        30.17S
BOWLING GREEN  PTCLDY    65  48  54 E5        30.18F
GLASGOW        CLOUDY    65  45  49 CALM      30.18F
$$

KYZ024-025-028>034-038-045-046-053-190100-
NORTH CENTRAL KENTUCKY

CITY           SKY/WX    TMP DP  RH WIND       PRES   REMARKS
LOUISVILLE/SDF MOCLDY    69  37  30 E6        30.18S
LOUISVILLE/LOU LGT RAIN  71  37  28 NE6       30.19S
FORT KNOX      MOCLDY    67  40  37 E7        30.18R
$$

KYZ035>037-039>044-047>052-055>060-089>105-190100-
NORTHEAST KENTUCKY

CITY           SKY/WX    TMP DP  RH WIND       PRES   REMARKS
LEXINGTON      CLOUDY    66  39  37 CALM      30.21S
COVINGTON      MOCLDY    66  37  34 N5        30.20S
FRANKFORT      MOCLDY    65  39  38 CALM      30.19S
$$

KYZ054-064>069-076>088-106>120-190100-
SOUTHEAST KENTUCKY

CITY           SKY/WX    TMP DP  RH WIND       PRES   REMARKS
JACKSON        CLOUDY    65  35  33 NE3       30.19F
LONDON         CLOUDY    66  41  40 CALM      30.18F
SOMERSET       CLOUDY    63  41  45 NE6       30.20S
MIDDLESBORO    CLOUDY    63  40  42 CALM      30.20R
MONTICELLO     CLOUDY    60  49  67 CALM      30.20F
$$




USA.gov is the U.S. government's official web portal to all federal, state and local government web resources and services.